Kirksville, MO

6:00 PM CDT on October 23, 2017 (GMT -0500)
Kirksville Regional

Weather History for KIRK - March, 2014

Change the Weather History Date:

Friday, March 7, 2014

  Actual Average Record
Temperature  
Mean Temperature 41 °F 37 °F  
Max Temperature 56 °F 47 °F 74 °F (1925)
Min Temperature 26 °F 27 °F -4 °F (1920)
Degree Days  
Heating Degree Days 24 28  
Month to date heating degree days 307 205  
Since 1 July heating degree days 5277 4738  
Cooling Degree Days 0 0  
Month to date cooling degree days 0 0  
Year to date cooling degree days 0 0  
Moisture  
Dew Point 29 °F    
Average Humidity 66    
Maximum Humidity 89    
Minimum Humidity 43    
Precipitation  
Precipitation 0.00 in 0.08 in 0.40 in (1961)
Month to date precipitation 0.30 0.56  
Year to date precipitation 3.85 3.36  
Sea Level Pressure  
Sea Level Pressure 29.98 in    
Wind  
Wind Speed 10 mph (West)    
Max Wind Speed 21 mph    
Max Gust Speed 25 mph    
Visibility 7 miles    
Events      
T = Trace of Precipitation, MM = Missing Value Source: NWS Daily Summary

Daily Weather History Graph

Daily Weather History Graph

Search for Another Location

Airport or City:

Trip Planner

Search our weather history database for the weather conditions in past years. The results will help you decide how hot, cold, wet, or windy it might be!

Date:

Astronomy

Mar. 07, 2014 Rise Set
Actual Time 6:34 AM CST 6:08 PM CST
Civil Twilight 6:07 AM CST 6:35 PM CST
Nautical Twilight 5:35 AM CST 7:07 PM CST
Astronomical Twilight 5:04 AM CST 7:38 PM CST
Moon 10:27 AM CST (3/7) 12:14 AM CST (3/7)
Length of Visible Light 12h 28m
Length of Day
11h 34m
Waxing Crescent, 42% of the Moon is Illuminated
Mar 7
Waxing Crescent
Mar 8
First Quarter
Mar 16
Full
Mar 23
Last Quarter
Mar 30
New

Hourly Weather History & Observations

Time (CST) Temp. Windchill Dew Point Humidity Pressure Visibility Wind Dir Wind Speed Gust Speed Precip Events Conditions
12:55 AM 30.9 °F 22.2 °F 24.1 °F 76% 30.01 in 6.0 mi SSE 10.4 mph - N/A   Haze
1:55 AM 28.9 °F 21.9 °F 21.0 °F 72% 30.01 in 8.0 mi South 6.9 mph - N/A   Clear
2:55 AM 27.0 °F 18.7 °F 21.0 °F 78% 29.99 in 6.0 mi SSE 8.1 mph - N/A   Haze
3:55 AM 27.0 °F 18.7 °F 21.0 °F 78% 29.96 in 7.0 mi South 8.1 mph - N/A   Clear
4:55 AM 30.9 °F 23.5 °F 21.0 °F 67% 29.96 in 9.0 mi South 8.1 mph - N/A   Clear
5:55 AM 30.9 °F 23.5 °F 21.0 °F 67% 29.97 in 9.0 mi South 8.1 mph - N/A   Clear
6:55 AM 32.0 °F 24.2 °F 21.9 °F 66% 29.97 in 8.0 mi South 9.2 mph - N/A   Clear
7:55 AM 36.0 °F 28.5 °F 24.1 °F 62% 29.96 in 9.0 mi SSW 10.4 mph - N/A   Clear
8:55 AM 43.0 °F 36.4 °F 26.1 °F 51% 29.95 in 10.0 mi South 12.7 mph - N/A   Clear
9:55 AM 46.0 °F 40.2 °F 28.9 °F 51% 29.96 in 10.0 mi SW 12.7 mph 20.7 mph N/A   Clear
10:55 AM 50.0 °F - 32.0 °F 50% 29.94 in 10.0 mi SW 10.4 mph 19.6 mph N/A   Clear
11:55 AM 52.0 °F - 35.1 °F 53% 29.93 in 10.0 mi SW 12.7 mph 21.9 mph N/A   Clear
12:55 PM 54.0 °F - 35.1 °F 49% 29.91 in 10.0 mi SSW 10.4 mph - N/A   Clear
1:55 PM 54.0 °F - 35.1 °F 49% 29.89 in 10.0 mi SSW 10.4 mph - N/A   Clear
2:55 PM 55.0 °F - 34.0 °F 45% 29.90 in 10.0 mi WSW 6.9 mph - N/A   Clear
3:55 PM 53.1 °F - 33.1 °F 47% 29.92 in 10.0 mi West 6.9 mph - N/A   Clear
4:55 PM 52.0 °F - 34.0 °F 50% 29.92 in 10.0 mi WNW 6.9 mph - N/A   Clear
5:55 PM 46.9 °F - 33.1 °F 59% 29.94 in 10.0 mi NNW 8.1 mph - N/A   Clear
6:55 PM 44.1 °F 39.0 °F 33.1 °F 65% 29.96 in 10.0 mi North 9.2 mph - N/A   Clear
7:55 PM 39.0 °F 29.9 °F 34.0 °F 82% 30.00 in 4.0 mi North 17.3 mph - N/A   Haze
8:55 PM 36.0 °F 27.5 °F 32.0 °F 86% 30.03 in 3.0 mi North 12.7 mph - N/A   Mostly Cloudy
9:20 PM 36.0 °F 27.1 °F 30.9 °F 82% 30.00 in 3.0 mi North 13.8 mph - N/A   Haze
9:52 PM 33.8 °F 23.9 °F 30.2 °F 87% 30.02 in 2.5 mi North 15.0 mph 21.9 mph N/A   Overcast
9:55 PM 34.0 °F 24.2 °F 30.9 °F 89% 30.05 in 2.5 mi North 15.0 mph - N/A   Overcast
10:53 PM 33.8 °F 24.3 °F 28.4 °F 81% 30.03 in 3.0 mi North 13.8 mph 20.7 mph N/A   Overcast
10:55 PM 33.1 °F 23.9 °F 28.9 °F 85% 30.05 in 3.0 mi North 12.7 mph 20.7 mph N/A   Overcast
11:31 PM 33.1 °F 22.6 °F 28.9 °F 85% 30.02 in 2.5 mi North 16.1 mph 20.7 mph N/A   Overcast
11:42 PM 32.0 °F 22.5 °F 28.9 °F 88% 30.03 in 3.0 mi North 12.7 mph - N/A   Overcast
11:55 PM 32.0 °F 21.2 °F 28.9 °F 88% 30.06 in 3.0 mi North 16.1 mph - N/A   Overcast